{"data":{"norad_id":66424,"epoch":"2026-05-24T21:18:25.386048Z","epoch_age_seconds":85032,"freshness":"FRESH","line1":"1 66424U 25259C   26144.88779382  .00019510  00000+0  71687-3 0  9991","line2":"2 66424  43.0013 204.1311 0001690 258.9413 101.1248 15.27568678 31146","mean_motion":15.27568678,"eccentricity":0.000169,"inclination_deg":43.0013,"raan_deg":204.1311,"arg_perigee_deg":258.9413,"mean_anomaly_deg":101.1248,"bstar":0.00071687,"rev_number":3114,"period_min":94.267447397871,"perigee_km":481.92345221039,"apogee_km":484.24254456985,"semimajor_km":6861.2199983901,"source":"CELESTRAK","updated_at":"2026-05-25T13:38:21.206970Z"}}